Regional Weather Roundup
Issued by NWS Cleveland, OH

Home | Current Version | Previous Version | Graphics & Text | Print | Product List | Glossary On
Versions: 1 2 3 4 5 6 7 8 9 10 11 12 13 14 15 16 17 18 19 20 21 22 23 24 25 26 27 28 29 30 31 32 33 34 35 36 37 38 39 40 41 42 43 44 45 46 47 48 49 50
000
ASUS41 KCLE 270200
RWRCLE
OHIO REGIONAL WEATHER ROUNDUP
NATIONAL WEATHER SERVICE WILMINGTON, OH
1000 PM EDT TUE MAY 26 2015

NOTE: "FAIR" INDICATES FEW OR NO CLOUDS BELOW 12,000 FEET WITH NO
SIGNIFICANT WEATHER AND/OR OBSTRUCTIONS TO VISIBILITY.

OHZ001>008-015>018-024>027-034-035-043-044-270300-
   NORTHWEST OHIO

CITY           SKY/WX    TMP DP  RH WIND       PRES   REMARKS
DEFIANCE       MOCLDY    71  65  81 S10G20    29.91R
FINDLAY        MOCLDY    71  66  84 S15       29.94R
TOLEDO EXPRESS PTCLDY    68  65  90 S9        29.92R
TOLEDO EXEC    MOCLDY    70  64  81 S14       29.93R
LIMA           MOCLDY    69  66  90 S13       29.96R
$$

OHZ009>014-019>023-028>033-038-089-270300-
   NORTHEAST OHIO

CITY           SKY/WX    TMP DP  RH WIND       PRES   REMARKS
CLE-HOPKINS    LGT RAIN  73  64  73 SW10      30.01R
CLE-LAKEFRONT  CLOUDY    75  66  73 S12       29.98R
CUY CO. ARPT   MOCLDY    73  68  83 S12       30.00R
LORAIN-ELYRIA  CLOUDY    69  65  86 S12       29.99S
ASHTABULA      CLOUDY    74  65  73 S8        30.01F
AKRON-CANTON   CLOUDY    73  68  84 SE9       30.02F
WOOSTER        NOT AVBL
MANSFIELD      CLOUDY    67  65  93 S10       30.01S
YOUNGSTOWN     CLOUDY    71  66  84 SE6       30.03F
$$

OHZ042-051>053-060>062-070>072-077>081-270300-
  SOUTHWEST OHIO

CITY           SKY/WX    TMP DP  RH WIND       PRES   REMARKS
CINC-COVINGTON CLOUDY    68  65  90 S7        30.03S
CINC-LUNKEN    CLOUDY    69  69 100 S10       30.02S
HAMILTON       CLOUDY    71  69  93 S8        30.01R
DAYTON         CLOUDY    72  68  88 S13       30.00R
WRIGHT-PAT AFB NOT AVBL
DAYTON GENERAL CLOUDY    70  68  93 S12       30.00R
WILMINGTON     CLOUDY    69  66  90 S15G22    30.02S
$$

OHZ036-037-039>041-045>050-054>059-063>069-073>076-082>088-270300-
  CENTRAL AND SOUTHEAST OHIO

CITY           SKY/WX    TMP DP  RH WIND       PRES   REMARKS
COLUMBUS       CLOUDY    68  67  96 S6        30.02R
OSU AIRPORT    LGT RAIN  69  66  90 S7        30.01R
BOLTON FIELD   NOT AVBL
RICKENBACK AFB NOT AVBL
NEWARK         LGT RAIN  69  66  90 S3        30.04R
MARION         LGT RAIN  68  65  90 S13       29.99F
LANCASTER      RAIN      69  65  86 S9        30.06R
ZANESVILLE     CLOUDY    68  63  84 SE12      30.06R HAZE
NEW PHILLY     CLOUDY    72  69  90 SE3       30.02F
$$



USA.gov is the U.S. government's official web portal to all federal, state and local government web resources and services.